timestamp,surface_pressure_avg,surface_temp_avg,battery_voltage,lat,long
2018-04-24 00:00:00+00:00,206.0531,3.9,13.05,47.84626,-54.09684
2018-04-24 00:10:00+00:00,207.5765,3.9,12.97,47.84626,-54.09684
2018-04-24 00:20:00+00:00,207.1014,3.75,13.05,47.84626,-54.09684
2018-04-24 00:30:00+00:00,204.7781,3.8,13.05,47.84626,-54.09684
2018-04-24 00:40:00+00:00,206.1364,3.8,13.05,47.84626,-54.09684
2018-04-24 00:50:00+00:00,207.9998,3.79,13.05,47.84626,-54.09684
2018-04-24 01:00:00+00:00,205.4115,3.77,12.97,47.84626,-54.09684
2018-04-24 01:10:00+00:00,204.9832,3.79,12.97,47.84626,-54.09684
2018-04-24 01:20:00+00:00,211.0914,3.8,12.97,47.84626,-54.09684
2018-04-24 01:30:00+00:00,214.6298,3.8,12.97,47.84626,-54.09684
2018-04-24 01:40:00+00:00,213.3631,3.8,13.05,47.84626,-54.09684
2018-04-24 01:50:00+00:00,214.6047,3.74,13.05,47.84626,-54.09684
2018-04-24 02:00:00+00:00,219.3698,3.7,12.97,47.84626,-54.09684
2018-04-24 02:10:00+00:00,221.9281,3.7,12.89,47.84626,-54.09684
2018-04-24 02:20:00+00:00,222.3281,3.7,12.97,47.84626,-54.09684
2018-04-24 02:30:00+00:00,224.9814,3.7,12.97,47.84626,-54.09684
2018-04-24 02:40:00+00:00,230.6915,3.7,12.97,47.84626,-54.09684
2018-04-24 02:50:00+00:00,235.3031,3.7,12.97,47.84626,-54.09684
2018-04-24 03:00:00+00:00,239.8465,3.7,12.97,47.84626,-54.09684
2018-04-24 03:10:00+00:00,246.0764,3.7,12.89,47.84626,-54.09684
2018-04-24 03:20:00+00:00,252.7964,3.7,12.97,47.84626,-54.09684
2018-04-24 03:30:00+00:00,258.7331,3.7,12.97,47.84626,-54.09684
2018-04-24 03:40:00+00:00,264.423,3.69,12.97,47.84626,-54.09684
2018-04-24 03:50:00+00:00,271.6597,3.61,12.97,47.84626,-54.09684
2018-04-24 04:00:00+00:00,278.3831,3.6,12.97,47.84626,-54.09684
2018-04-24 04:10:00+00:00,285.1147,3.6,12.89,47.84626,-54.09684
2018-04-24 04:20:00+00:00,289.5613,3.6,12.97,47.84626,-54.09684
2018-04-24 04:30:00+00:00,293.8781,3.6,12.97,47.84626,-54.09684
2018-04-24 04:40:00+00:00,299.303,3.6,12.97,47.84626,-54.09684
2018-04-24 04:50:00+00:00,303.9397,3.6,12.97,47.84626,-54.09684
2018-04-24 05:00:00+00:00,304.1447,3.6,12.89,47.84626,-54.09684
2018-04-24 05:10:00+00:00,306.088,3.6,12.89,47.84626,-54.09684
2018-04-24 05:20:00+00:00,311.4246,3.6,12.97,47.84626,-54.09684
2018-04-24 05:30:00+00:00,314.4481,3.6,12.97,47.84626,-54.09684
2018-04-24 05:40:00+00:00,315.9714,3.6,12.97,47.84626,-54.09684
2018-04-24 05:50:00+00:00,317.263,3.61,12.97,47.84626,-54.09684
2018-04-24 06:00:00+00:00,318.373,3.62,12.89,47.84626,-54.09684
2018-04-24 06:10:00+00:00,319.0779,3.64,12.89,47.84626,-54.09684
2018-04-24 06:20:00+00:00,321.6013,3.65,12.97,47.84626,-54.09684
2018-04-24 06:30:00+00:00,324.3447,3.67,12.97,47.84626,-54.09684
2018-04-24 06:40:00+00:00,324.3763,3.67,12.97,47.84626,-54.09684
2018-04-24 06:50:00+00:00,324.9147,3.65,12.97,47.84626,-54.09684
2018-04-24 07:00:00+00:00,326.4314,3.64,12.89,47.84626,-54.09684
2018-04-24 07:10:00+00:00,327.3297,3.63,12.81,47.84626,-54.09684
2018-04-24 07:20:00+00:00,327.2479,3.62,12.89,47.84626,-54.09684
2018-04-24 07:30:00+00:00,326.4331,3.6,12.97,47.84626,-54.09684
2018-04-24 07:40:00+00:00,325.1981,3.61,12.97,47.84626,-54.09684
2018-04-24 07:50:00+00:00,322.3246,3.63,12.97,47.84626,-54.09684
2018-04-24 08:00:00+00:00,316.158,3.6,12.89,47.84626,-54.09684
2018-04-24 08:10:00+00:00,310.2797,3.6,12.81,47.84626,-54.09684
2018-04-24 08:20:00+00:00,304.978,3.6,12.89,47.84626,-54.09684
2018-04-24 08:30:00+00:00,299.0146,3.6,12.89,47.84626,-54.09684
2018-04-24 08:40:00+00:00,292.1931,3.6,12.97,47.84626,-54.09684
2018-04-24 08:50:00+00:00,287.5963,3.6,12.97,47.84626,-54.09684
2018-04-24 09:00:00+00:00,283.1198,3.6,12.97,47.84626,-54.09684
2018-04-24 09:10:00+00:00,274.1114,3.6,12.97,47.84626,-54.09684
2018-04-24 09:20:00+00:00,268.193,3.6,13.21,47.84626,-54.09684
2018-04-24 09:30:00+00:00,265.1264,3.6,13.37,47.84626,-54.09684
2018-04-24 09:40:00+00:00,260.1564,3.62,13.68,47.84626,-54.09684
2018-04-24 09:50:00+00:00,250.7197,3.62,14.0,47.84626,-54.09684
2018-04-24 10:00:00+00:00,245.2264,3.64,14.08,47.84626,-54.09684
2018-04-24 10:10:00+00:00,242.1765,3.64,14.32,47.84626,-54.09684
2018-04-24 10:20:00+00:00,236.523,3.65,15.91,47.84626,-54.09684
2018-04-24 10:30:00+00:00,231.2598,3.65,15.99,47.84626,-54.09684
2018-04-24 10:40:00+00:00,228.2331,3.66,16.07,47.84626,-54.09684
2018-04-24 10:50:00+00:00,226.0164,3.62,15.99,47.84626,-54.09684
2018-04-24 11:00:00+00:00,221.7581,3.66,15.04,47.84626,-54.09684
2018-04-24 11:10:00+00:00,219.0531,3.69,14.56,47.84626,-54.09684
2018-04-24 11:20:00+00:00,217.5998,3.7,15.99,47.84626,-54.09684
2018-04-24 11:30:00+00:00,215.5381,3.7,14.4,47.84626,-54.09684
2018-04-24 11:40:00+00:00,212.1581,3.7,15.27,47.84626,-54.09684
2018-04-24 11:50:00+00:00,210.2498,3.7,16.15,47.84626,-54.09684
2018-04-24 12:00:00+00:00,211.3332,3.7,14.96,47.84626,-54.09684
2018-04-24 12:10:00+00:00,211.1931,3.7,14.88,47.84626,-54.09684
2018-04-24 12:20:00+00:00,206.8898,3.7,15.11,47.84626,-54.09684
2018-04-24 12:30:00+00:00,204.2714,3.7,15.11,47.84626,-54.09684
2018-04-24 12:40:00+00:00,204.3281,3.7,14.48,47.84626,-54.09684
2018-04-24 12:50:00+00:00,204.0414,3.7,14.4,47.84626,-54.09684
2018-04-24 13:00:00+00:00,201.5548,3.7,14.4,47.84626,-54.09684
2018-04-24 13:10:00+00:00,201.7864,3.69,14.24,47.84626,-54.09684
2018-04-24 13:20:00+00:00,205.1081,3.62,14.72,47.84626,-54.09684
2018-04-24 13:30:00+00:00,205.8981,3.6,14.4,47.84626,-54.09684
2018-04-24 13:40:00+00:00,204.3565,3.6,14.64,47.84626,-54.09684
2018-04-24 13:50:00+00:00,203.6581,3.69,14.4,47.84626,-54.09684
2018-04-24 14:00:00+00:00,204.6948,3.7,14.32,47.84626,-54.09684
2018-04-24 14:10:00+00:00,205.8798,3.7,14.56,47.84626,-54.09684
2018-04-24 14:20:00+00:00,207.6331,3.7,14.56,47.84626,-54.09684
2018-04-24 14:30:00+00:00,210.9198,3.7,15.91,47.84626,-54.09684
2018-04-24 14:40:00+00:00,212.7598,3.7,14.48,47.84626,-54.09684
2018-04-24 14:50:00+00:00,215.0731,3.7,14.56,47.84626,-54.09684
2018-04-24 15:00:00+00:00,220.2131,3.7,14.24,47.84626,-54.09684
2018-04-24 15:10:00+00:00,225.1381,3.7,14.24,47.84626,-54.09684
2018-04-24 15:20:00+00:00,230.6431,3.7,15.91,47.84626,-54.09684
2018-04-24 15:30:00+00:00,235.5514,3.69,14.72,47.84626,-54.09684
2018-04-24 15:40:00+00:00,238.5698,3.7,14.56,47.84626,-54.09684
2018-04-24 15:50:00+00:00,240.7647,3.7,14.48,47.84626,-54.09684
2018-04-24 16:00:00+00:00,244.4931,3.7,14.88,47.84626,-54.09684
2018-04-24 16:10:00+00:00,249.0131,3.73,14.48,47.84626,-54.09684
2018-04-24 16:20:00+00:00,254.0164,3.79,14.8,47.84626,-54.09684
2018-04-24 16:30:00+00:00,260.9047,3.8,14.56,47.84626,-54.09684
2018-04-24 16:40:00+00:00,268.4131,3.8,14.48,47.84626,-54.09684
2018-04-24 16:50:00+00:00,274.7647,3.8,14.4,47.84626,-54.09684
2018-04-24 17:00:00+00:00,279.3747,3.9,14.32,47.84626,-54.09684
2018-04-24 17:10:00+00:00,283.7297,4.0,14.24,47.84626,-54.09684
2018-04-24 17:20:00+00:00,289.773,3.9,14.32,47.84626,-54.09684
2018-04-24 17:30:00+00:00,293.8997,3.9,14.24,47.84626,-54.09684
2018-04-24 17:40:00+00:00,295.6964,3.89,14.32,47.84626,-54.09684
2018-04-24 17:50:00+00:00,298.9447,3.7,14.32,47.84626,-54.09684
2018-04-24 18:00:00+00:00,302.1913,3.72,14.08,47.84626,-54.09684
2018-04-24 18:10:00+00:00,302.3713,3.79,13.92,47.84626,-54.09684
2018-04-24 18:20:00+00:00,305.1964,3.8,14.0,47.84626,-54.09684
2018-04-24 18:30:00+00:00,310.3563,3.81,14.08,47.84626,-54.09684
2018-04-24 18:40:00+00:00,312.378,3.88,14.0,47.84626,-54.09684
2018-04-24 18:50:00+00:00,311.4031,3.9,14.0,47.84626,-54.09684
2018-04-24 19:00:00+00:00,313.5697,3.97,13.84,47.84626,-54.09684
2018-04-24 19:10:00+00:00,316.6647,4.0,13.68,47.84626,-54.09684
2018-04-24 19:20:00+00:00,316.568,3.9,13.68,47.84626,-54.09684
2018-04-24 19:30:00+00:00,317.3214,3.8,13.68,47.84626,-54.09684
2018-04-24 19:40:00+00:00,320.1714,3.9,13.68,47.84626,-54.09684
2018-04-24 19:50:00+00:00,320.3097,3.83,13.68,47.84626,-54.09684
2018-04-24 20:00:00+00:00,314.828,3.9,13.6,47.84626,-54.09684
2018-04-24 20:10:00+00:00,312.8814,3.9,13.53,47.84626,-54.09684
2018-04-24 20:20:00+00:00,314.178,3.96,13.53,47.84626,-54.09684
2018-04-24 20:30:00+00:00,309.0179,4.0,13.53,47.84626,-54.09684
2018-04-24 20:40:00+00:00,303.0048,4.1,13.6,47.84626,-54.09684
2018-04-24 20:50:00+00:00,298.318,4.2,13.6,47.84626,-54.09684
2018-04-24 21:00:00+00:00,294.2681,4.2,13.44,47.84626,-54.09684
2018-04-24 21:10:00+00:00,286.2764,4.25,13.37,47.84626,-54.09684
2018-04-24 21:20:00+00:00,281.6097,4.28,13.37,47.84626,-54.09684
2018-04-24 21:30:00+00:00,279.0881,4.24,13.37,47.84626,-54.09684
2018-04-24 21:40:00+00:00,272.5547,4.3,13.37,47.84626,-54.09684
2018-04-24 21:50:00+00:00,264.4681,4.3,13.37,47.84626,-54.09684
2018-04-24 22:00:00+00:00,256.1248,4.37,13.29,47.84626,-54.09684
2018-04-24 22:10:00+00:00,249.9181,4.37,13.21,47.84626,-54.09684
2018-04-24 22:20:00+00:00,244.3647,4.31,13.21,47.84626,-54.09684
2018-04-24 22:30:00+00:00,241.2331,4.3,13.21,47.84626,-54.09684
2018-04-24 22:40:00+00:00,238.0931,4.3,13.21,47.84626,-54.09684
2018-04-24 22:50:00+00:00,236.7115,4.3,13.21,47.84626,-54.09684
2018-04-24 23:00:00+00:00,235.2465,4.3,13.13,47.84626,-54.09684
2018-04-24 23:10:00+00:00,231.6231,4.24,13.05,47.84626,-54.09684
2018-04-24 23:20:00+00:00,227.1981,4.24,13.13,47.84626,-54.09684
2018-04-24 23:30:00+00:00,224.5181,4.27,13.13,47.84626,-54.09684
2018-04-24 23:40:00+00:00,222.5631,4.29,13.13,47.84626,-54.09684
2018-04-24 23:50:00+00:00,218.3481,4.3,13.13,47.84626,-54.09684
